National Oceanic Atmosphere Administration National Weather Service Headquarters National Weather Service Headquarters
NOAA logo WFO Anchorage Scalable transition graphic NWS logo
Transition from title bar to navgation bar   Aviation Weather 03 AKDT 
blankspace Home   |   Mobile   |   Social Media   |   Mesonet   |   Surface Map   |   Radar   |   Submit Storm Reports   |   News =11 GMT 

LocalForecast by City, St or Zip Code

spacer

Forecasts/Products
  Public
  Forecast Discussion
    - With Glossary
  Aviation
  Marine
  Hydrology(RFC)
  Rivers & Lakes AHPS
  Ice Desk
  TV Weather
  Fire Weather
  Avalanche
  Travel 511
  Graphical
  xml logo RSS Feeds
  Marine FTPMail

spacer

Data
  Mesonet
  Model Graphics
  Local Model
  Observations
  Marine Obs
  Satellite/Radar
  Vent Factor
  Soaring Index
  Weather Links

spacer

Climate
  PAFC Climate
  Interactive Climate
  PAFC Records
  Local
  National
  More

spacer

Outreach
  About Us
  Community Outreach
  Kids' Page
  Tour/Speaker Request
  Weather Classroom
  Social Media

spacer

Reports
  COOP Observers
  Local Storm Reports
  Spotter Page
  Submit a Storm Report

spacer

Miscellaneous
  Archived Alaska Weather Stories
  Student Career Opportunities
  Research Papers

spacer

Print Friendly/
Low Bandwidth

  Public Forecasts
  Marine Forecasts

spacer

Contact Us
  mailto pafcweb

spacer

Facebook Follow the National Weather Service in Alaska on Twitter
USA.gov is the U.S. government's official web portal to all federal, state and local government web resources and services.


 ICAO ID:   AAWU Graphics

Internet access to TAFs and METAR observations is for planning purposes only. We can not guarantee the timeliness of internet products. Before flying please get a formal pilot briefing (1-800-992-7433) and ALWAYS file a Flight Plan!Pilot briefings are provided to licensed aircraft pilots, ONLY! Others may not use the above number to obtain weather information.

Check out the Key to TAFs and METARs for help with decoding the information.

A 12 hour summary of TAFs can be found here.

PANC TAF
PANC 281138Z 2812/2918  24005KT P6SM SCT200
     FM282000 29009KT P6SM SKC
     FM290600 VRB04KT P6SM SKC=


METAR PANC 281053Z 16004KT 10SM FEW180 SCT250 08/04 A3033 RMK AO2 SLP270
     T00780039=
METAR PANC 281053Z 16004KT 10SM FEW180 SCT250 08/04 A3033=
METAR PANC 280953Z 19006KT 10SM FEW180 SCT250 08/03 A3032 RMK AO2 SLP267
     T00830033=
METAR PANC 280953Z 19006KT 10SM FEW180 SCT250 08/03 A3032=
PANC 280853Z 21004KT 10SM FEW180 SCT250 07/03 A3030 RMK AO2 SLP261
     T00720033 401500039 53013=
METAR PANC 280853Z 21004KT 10SM FEW180 SCT250 07/03 A3030=
METAR PANC 280753Z 00000KT 10SM FEW180 SCT250 07/04 A3029 RMK AO2 SLP257
     T00720039=
METAR PANC 280753Z 00000KT 10SM FEW180 SCT250 07/04 A3029=


National Weather Service
Anchorage Forecast Office
6930 Sand Lake Road
Anchorage, Ak 99502
(907) 266-5105 M-F/7-5pm
About Us
Career Opportunities
Glossary
Disclaimer
Privacy Policy
Credits
Alaska Weather Information Line:
1-800-472-0391